Location: Unspecified
(48.2082°N, 0.0000°E)
Time: 18:42:48
(UTC+00:00)

Transit 4A - Pass Details

Date: 20 June 2019
Orbit: 862 x 982 km, 66.8° (Epoch: 15 July)

Event Time Altitude Azimuth Distance (km) Brightness Sun altitude
Rises 12:17:50 0° 292° (WNW) 3,677 11.0 65.0°
Reaches altitude 10° 12:21:40 10° 314° (NW) 2,741 10.3 64.9°
Maximum altitude 12:25:19 15° 349° (N) 2,373 10.0 64.8°
Drops below altitude 10° 12:28:58 10° 24° (NNE) 2,745 10.2 64.6°
Sets 12:32:49 0° 47° (NE) 3,686 10.8 64.5°
